Location: Absher
(46.5583°N, 107.9840°W)
Time: 07:22:20
(UTC+00:00)

STRAND 1 - Pass Details

Date: 03 April 2023
Orbit: 767 x 779 km, 98.4° (Epoch: 03 June)

Event Time Altitude Azimuth Distance (km) Brightness Sun altitude
Rises 04:00:26 0° 357° (N) 3,251 ? -22.7°
Reaches altitude 10° 04:04:15 10° 328° (NNW) 2,318 ? -23.2°
Maximum altitude 04:06:07 12° 306° (NW) 2,173 ? -23.5°
Drops below altitude 10° 04:08:00 10° 284° (WNW) 2,312 ? -23.7°
Sets 04:11:48 0° 255° (WSW) 3,233 ? -24.3°
